Regional Weather Roundup
Issued by NWS

Home | Current Version | Previous Version | Text Only | Print | Product List | Glossary Off
Versions: 1 2 3 4 5 6 7 8 9 10 11 12 13 14 15 16 17 18 19 20 21 22 23 24 25 26 27 28 29 30 31 32 33 34 35 36 37 38 39 40 41 42 43 44 45 46 47 48 49 50

000
ASUS43 KMPX 280510
RWRMN
WEATHER ROUNDUP FOR MINNESOTA
NATIONAL WEATHER SERVICE TWIN CITIES/CHANHASSEN MN
1200 AM CDT TUE APR 28 2015


NOTE: "FAIR" INDICATES FEW OR NO CLOUDS BELOW 12,000 FEET WITH NO
SIGNIFICANT WEATHER AND/OR OBSTRUCTIONS TO VISIBILITY. N/A MEANS
CURRENT SKY AND/OR WEATHER CONDITIONS ARE NOT AVAILABLE.

MNZ060>063-068>070-280600-
   Twin Cities Metro

CITY           SKY/WX    TMP DP  RH WIND       PRES   REMARKS
TWIN CITIES    MOCLDY    55  30  38 CALM      30.14S
ST PAUL        CLEAR     49  36  61 CALM      30.15R
CRYSTAL        FAIR      47  33  58 CALM      30.13S
BLAINE         PTCLDY    46  30  53 CALM      30.14S
LAKEVILLE      FAIR      41  36  81 CALM      30.14S
EDEN PRAIRIE   PTCLDY    52  33  48 CALM      30.13S
SOUTH ST PAUL  FAIR      50  31  49 CALM      30.14S
LAKE ELMO      FAIR      43  32  65 CALM      30.15S
$$
MNZ001>005-007-008-013>017-022>024-027-028-280600-
   Northwest Minnesota

CITY           SKY/WX    TMP DP  RH WIND       PRES   REMARKS
BEMIDJI        MOCLDY    54  42  64 NW10      30.18R
HALLOCK        MOCLDY    43  41  93 NW5       30.26R
ROSEAU         DRIZZLE   46  43  87 N7        30.23S
WARROAD        DRIZZLE   46  43  87 NW3       30.23S
THIEF RVR FALL CLOUDY    46  43  87 NW8       30.24R
CROOKSTON      LGT RAIN  45  45 100 N13       30.25S
FOSSTON        CLOUDY    48  39  71 N12       30.23S
DETROIT LAKES  MOCLDY    52  41  66 N14       30.21R
MOORHEAD       CLOUDY    52  39  62 N16       30.24R
PARK RAPIDS    PTCLDY    56  33  42 N9        30.16R
MAHNOMEN       CLOUDY    50  41  71 N14       30.21S
$$
MNZ006-009>011-018-025>026-280600-
   North Central Minnesota

CITY           SKY/WX    TMP DP  RH WIND       PRES   REMARKS
BAUDETTE       CLOUDY    47  40  76 N13       30.21R
FLAG ISLAND    DRIZZLE   45  41  87 NW14      30.21S
INTL FALLS     PTCLDY    51  36  56 N7        30.15S
WASKISH        CLOUDY    52  43  71 N7        30.19R
BIG FORK       CLEAR     45  28  53 CALM      30.15S
LONGVILLE      PTCLDY    45  37  76 W3        30.14R
GRAND RAPIDS   PTCLDY    48  25  40 E3        30.13S
CRANE LAKE     PTCLDY    34  30  86 CALM      30.16S
ORR            PTCLDY    45  27  49 CALM      30.12S
COOK           PTCLDY    39  32  75 CALM      30.15R
WALKER         FAIR      52  34  51 W6        30.16R
$$
MNZ012-019>021-037-280600-
   Northeast Minnesota

CITY           SKY/WX    TMP DP  RH WIND       PRES   REMARKS
DULUTH         CLEAR     47  27  45 E5        30.14S
ELY            PTCLDY    36  30  80 CALM      30.14S
HIBBING        PTCLDY    39  27  62 CALM      30.14R
EVELETH        PTCLDY    39  32  75 CALM      30.15S
DULUTH HARBOR  CLEAR     41  36  81 CALM      30.16F
TWO HARBORS    PTCLDY    39  30  70 N5        30.14S
SILVER BAY     PTCLDY    34  28  80 CALM      30.14S
GRAND MARAIS     N/A     35  28  75 CALM      30.16F
G MARAIS ARPRT PTCLDY    34  25  69 CALM      30.16S
$$
MNZ029>031-032-039>041-046>048-054>057-064-280600-
   West Central Minnesota

CITY           SKY/WX    TMP DP  RH WIND       PRES   REMARKS
FERGUS FALLS   PTCLDY    52  37  58 N12       30.19R
WHEATON        PTCLDY    50  39  66 NW12G17   30.23R
MORRIS         CLEAR     46  30  53 W8        30.16R
ALEXANDRIA     CLEAR     49  30  48 W3        30.16S
ELBOW LAKE     FAIR      51  37  57 NW6       30.17R
WADENA         PTCLDY    46  28  49 N3        30.15R
GLENWOOD       CLEAR     52  27  37 W5        30.16S
APPLETON       CLEAR     45  30  57 CALM      30.16S
BENSON         CLEAR     45  32  61 W5        30.16S
ORTONVILLE     CLEAR     54  39  58 N10       30.19R
MADISON        CLEAR     46  23  39 W6        30.17S
WILLMAR        FAIR      48  30  49 CALM      30.17S
$$
MNZ033>034-036-042>043-049>051-058-059-280600-
   Central Minnesota

CITY           SKY/WX    TMP DP  RH WIND       PRES   REMARKS
ST CLOUD       PTCLDY    46  32  58 W3        30.13F HAZE
SAUK CENTRE    FAIR      46  30  53 CALM      30.16S
PAYNESVILLE    PTCLDY    40  31  70 SW3       30.16S
AITKIN         CLEAR     39  30  70 CALM      30.12S
PINE RIVER     CLEAR     43  36  75 CALM      30.17S
BRAINERD       CLEAR     43  33  68 CALM      30.14S
STAPLES        CLEAR     45  28  53 CALM      30.14S
LONG PRAIRIE   FAIR      45  32  61 CALM      30.16S
LITTLE FALLS   CLEAR     43  32  65 CALM      30.14S
LITCHFIELD     PTCLDY    52  34  50 W5        30.16S
BUFFALO        PTCLDY    46  32  59 CALM      30.15F
MAPLE LAKE     PTCLDY    44  34  68 W3        30.15S
$$
MNZ037-044-045-052-053-280600-
   East Central Minnesota

CITY           SKY/WX    TMP DP  RH WIND       PRES   REMARKS
PRINCETON      PTCLDY    43  34  70 CALM      30.14S
MORA           PTCLDY    37  30  75 CALM      30.15R
CAMBRIDGE      PTCLDY    46  30  53 CALM      30.12S
RUSH CITY      PTCLDY    45  29  52 CALM      30.13S
MOOSE LAKE     CLEAR     43  28  56 CALM      30.13S
HINCKLEY       FAIR      37  30  75 CALM      30.13S
CLOQUET        PTCLDY    41  28  60 CALM      30.14F
MCGREGOR       PTCLDY    45  30  57 E5        30.14S
$$
MNZ071>073-080-081-089-090-097-098-280600-
   Southwest Minnesota

CITY           SKY/WX    TMP DP  RH WIND       PRES   REMARKS
MONTEVIDEO     CLEAR     54  23  30 W5        30.17S
GRANITE FALLS  PTCLDY    45  21  38 CALM      30.18S
CANBY          PTCLDY    44  32  62 W3        30.18S
MARSHALL       PTCLDY    46  27  46 SW5       30.17S
REDWOOD FALLS  CLEAR     52  26  36 W3        30.16S
OLIVIA         CLEAR     41  21  45 W5        30.16R
PIPESTONE      MOCLDY    52  25  35 NE3       30.18S
WINDOM         PTCLDY    48  36  61 CALM      30.18R
WORTHINGTON    CLEAR     43  23  45 NW5       30.19S
JACKSON        CLEAR     46  23  39 CALM      30.18S
TRACY          PTCLDY    51  24  35 W3        30.18S
SLAYTON        PTCLDY    44  25  47 CALM      30.20R
$$
MNZ065>067-074>077-082>085-091>093-280600-
   South Central Minnesota

CITY           SKY/WX    TMP DP  RH WIND       PRES   REMARKS
MANKATO        CLEAR     55  23  28 CALM      30.16R
NEW ULM        PTCLDY    50  21  32 CALM      30.16R
ST JAMES       PTCLDY    45  27  49 S5        30.18S
FAIRMONT       PTCLDY    46  28  49 NW3       30.16S
GLENCOE        PTCLDY    48  29  48 CALM      30.14F
FARIBAULT      CLEAR     43  34  70 CALM      30.15S
OWATONNA       CLEAR     41  27  56 CALM      30.16R
WASECA         CLEAR     43  32  65 CALM      30.17R
ALBERT LEA     CLEAR     46  30  53 CALM      30.16S
$$
MNZ078>079-086>088-094>096-280600-
   Southeast Minnesota

CITY           SKY/WX    TMP DP  RH WIND       PRES   REMARKS
ROCHESTER      PTCLDY    54  27  35 NW7       30.15F
RED WING       CLEAR     43  34  70 CALM      30.14R
STANTON        CLEAR     40  29  65 S6        30.14R
DODGE CENTER   PTCLDY    48  30  49 CALM      30.15S
WINONA         CLEAR     48  37  66 CALM      30.14R
AUSTIN         CLEAR     48  32  53 CALM      30.15S
PRESTON        CLEAR     50  30  45 NW6       30.15R
$$
ABBREVIATIONS USED IN REMARKS
   TC - TEMPERATURES IN CELSIUS
  WCI - WIND CHILL INDEX
   HX - HEAT INDEX
  VSB - VISIBILITY
$$


USA.gov is the U.S. government's official web portal to all federal, state and local government web resources and services.